SB KEPS @ AMSAT $ORB26222.1 2Line Orbital Elements 26222.AMSAT QST de KW1CDR AMSAT Orbital Elements for Amateur Satellites in TLE Format From Orbital Analysis Office New England Sci-Tech STEM Education Center West Townsend, MA August 10, 2026 To all radio amateurs These element sets describe the orbits of various satellites in use by the amateur radio community. For details see: www.amsat.org/keplerian-elements-formats/ A daily update of element sets is available at: www.amsat.org/tle/daily-bulletin.txt or without bulletin text: www.amsat.org/tle/dailytle.txt AO-07 1 7530U 74089B 26222.00533293 -.00000029 00000-0 10708-3 0 9993 2 7530 101.9917 235.8140 0012451 30.2434 26.1581 12.53698954367266 UO-11 1 14781U 84021B 26222.18368213 .00000852 00000-0 92017-4 0 9990 2 14781 97.8106 187.1733 0007982 17.4501 342.6990 14.90911805265170 AO-27 1 22825U 93061C 26222.19058267 .00000020 00000-0 24485-4 0 9999 2 22825 98.6844 289.5745 0007380 306.6605 53.3899 14.30954537714723 FO-29 1 24278U 96046B 26222.13381299 -.00000002 00000-0 36138-4 0 9996 2 24278 98.5200 63.6109 0349091 316.5928 40.8200 13.53276699480461 GO-32 1 25397U 98043D 26221.94058669 .00000014 00000-0 26215-4 0 9995 2 25397 99.0112 216.0650 0002328 74.6943 285.4492 14.24437522458980 ISS 1 25544U 98067A 26222.18186727 .00004351 00000-0 85915-4 0 9999 2 25544 51.6326 32.8714 0007377 31.2060 328.9366 15.49401464580127 NO-44 1 26931U 01043C 26222.07962161 .00000024 00000-0 39771-4 0 9992 2 26931 67.0503 104.8814 0005670 268.8663 91.1789 14.31973686298166 SO-50 1 27607U 02058C 26221.89700539 .00000520 00000-0 79204-4 0 9994 2 27607 64.5535 322.7952 0073679 252.6193 106.6847 14.83150829272422 CO-55 1 27844U 03031E 26221.98704361 .00000140 00000-0 79266-4 0 9992 2 27844 98.6757 229.8737 0010276 35.6186 324.5677 14.24364852199330 RS-22 1 27939U 03042A 26222.20243163 .00000239 00000-0 45032-4 0 9996 2 27939 98.3486 48.0960 0012554 96.1103 353.2038 14.73552953223504 CO-65 1 32785U 08021C 26222.20092470 .00002081 00000-0 13252-3 0 9991 2 32785 97.8320 204.7750 0008109 192.9064 167.1958 15.09904773993340 CO-66 1 32791U 08021J 26221.96402427 .00011918 00000-0 35916-3 0 9997 2 32791 97.7544 222.5081 0004903 109.2802 250.8970 15.34476884995530 RS-30 1 32953U 08025A 26222.17975083 .00000077 00000-0 48104-3 0 9995 2 32953 82.5072 321.8588 0019549 190.4913 169.5762 12.43182104826400 SRMSAT 1 37841U 11058D 26222.03169832 .00000324 00000-0 31997-4 0 9996 2 37841 19.9718 93.5535 0011764 76.8227 67.5694 14.11585739765437 ZACUBE-1 1 39417U 13066B 26222.12653786 .00002689 00000-0 20873-3 0 9990 2 39417 97.7993 184.7184 0043083 71.8303 288.7604 15.01493876688824 Delfi-N3xt 1 39428U 13066N 26222.04453881 .00004725 00000-0 40702-3 0 9993 2 39428 97.8298 142.3166 0074503 28.6840 331.8448 14.95679882682670 GOMX-1 1 39430U 13066Q 26222.18082169 .00000576 00000-0 93741-4 0 9990 2 39430 97.6463 59.2391 0126716 264.0266 94.6488 14.69594398677843 LO-74 1 39440U 13066AA 26222.11420506 .00000992 00000-0 95709-4 0 9993 2 39440 97.8933 171.3438 0056257 207.1458 152.6818 14.94098413685047 AO-73 1 39444U 13066AE 26221.87174391 .00005307 00000-0 32432-3 0 9995 2 39444 97.8315 194.4763 0036522 24.0103 336.2818 15.10163149687767 DTUSAT-2 1 40030U 14033W 26221.98885630 .00003612 00000-0 19374-3 0 9997 2 40030 98.0895 223.1658 0009306 59.5522 300.6627 15.15647997660832 LILACSAT-2 1 40908U 15049K 26222.16225439 .00012913 00000-0 20695-3 0 9997 2 40908 97.4615 261.1074 0008111 66.8024 293.4082 15.53193791604128 Horyu-4 1 41340U 16012D 26182.79199294 .04204222 -38650-5 11151-2 0 9996 2 41340 30.9791 330.1929 0008660 346.1826 13.8606 16.27112331573163 Lapan A3 1 41603U 16040E 26222.22859178 .00001843 00000-0 59310-4 0 9999 2 41603 97.1530 216.6206 0010273 170.5627 189.5811 15.33415498563094 CAS-2T 1 41847U 16066G 26222.19002291 .00000241 00000-0 43689-4 0 9992 2 41847 98.3794 297.3087 0340635 325.8841 32.0867 14.44802312512591 TechnoSat 1 42829U 17042E 26221.96711957 .00001610 00000-0 11667-3 0 9999 2 42829 97.4351 17.6083 0015891 270.0883 89.8523 15.05233035494798 AO-91 1 43017U 17073E 26222.10699403 .00006196 00000-0 26596-3 0 9992 2 43017 97.4636 88.2235 0149644 141.8339 219.3603 15.13406046473544 S-Net D 1 43186U 18014G 26222.15777941 .00002708 00000-0 13996-3 0 9999 2 43186 97.5299 126.6119 0007907 178.0051 182.1215 15.17120153466941 S-Net B 1 43187U 18014H 26222.17031221 .00002509 00000-0 13002-3 0 9993 2 43187 97.5306 126.6125 0008691 174.3579 185.7754 15.17088758466944 S-Net A 1 43188U 18014J 26222.15636333 .00002717 00000-0 14034-3 0 9994 2 43188 97.5315 126.8178 0008532 175.0158 185.1162 15.17128335466943 S-Net C 1 43189U 18014K 26222.17450285 .00002468 00000-0 12793-3 0 9990 2 43189 97.5333 126.9189 0010098 169.4994 190.6452 15.17078813465499 Ten-Koh 1 43677U 18084G 26222.11435794 .00000351 00000-0 30913-4 0 9995 2 43677 98.0745 56.7551 0008311 303.9381 56.1052 15.03128683424265 PO-101 1 43678U 18084H 26222.18318027 .00000896 00000-0 75983-4 0 9992 2 43678 98.1217 60.7652 0010971 358.5716 1.5473 15.00639966424316 QO-100 1 43700U 18090A 26222.21225432 .00000132 00000-0 00000+0 0 9992 2 43700 0.0064 169.3583 0002455 11.0538 240.4515 1.00270573 28214 MinXSS-2 1 43758U 18099A 26222.17022852 .00026373 00000-0 45988-3 0 9993 2 43758 97.4501 300.1740 0007385 77.7558 282.4520 15.50674350422481 AO-95 1 43770U 18099N 26222.13101010 .00007261 00000-0 27005-3 0 9992 2 43770 97.4350 282.2063 0009600 148.4405 211.7412 15.27773336421453 SNUSat 2 1 43782U 18099AA 26222.10484333 .00004946 00000-0 21549-3 0 9998 2 43782 97.4027 274.6756 0011892 105.9196 254.3352 15.22596759421231 SnugLite 1 43784U 18099AC 26222.11447653 .00006962 00000-0 25550-3 0 9991 2 43784 97.3835 275.8919 0004681 100.0443 260.1325 15.28259199421552 ITASat 1 1 43786U 18099AE 26222.09183650 .00004224 00000-0 20080-3 0 9996 2 43786 97.3996 272.5381 0013200 157.1353 203.0472 15.19663741421099 EAGLET 1 1 43790U 18099AJ 26222.08132443 .00002525 00000-0 14523-3 0 9991 2 43790 97.4198 270.3234 0011908 152.1335 208.0536 15.13301444420481 ESEO 1 43792U 18099AL 26222.05921200 .00001039 00000-0 78471-4 0 9999 2 43792 97.3936 257.1364 0012772 144.2477 215.9607 15.04383553419900 JO-97 1 43803U 18099AX 26222.15528676 .00010678 00000-0 31353-3 0 9999 2 43803 97.4098 285.2272 0007062 85.1835 275.0214 15.35301846421903 Suomi 100 1 43804U 18099AY 26222.13193647 .00008229 00000-0 28897-3 0 9992 2 43804 97.4156 282.3564 0011432 91.6889 268.5661 15.29600643421664 ISAT 1 43879U 18111D 26221.79826264 .00124173 00000-0 73660-3 0 9993 2 43879 97.5817 161.6040 0009355 108.0293 252.1992 15.77621455419583 UWE-4 1 43880U 18111E 26221.74704428 .00023054 00000-0 42109-3 0 9997 2 43880 97.5828 152.7338 0009668 118.9299 241.2922 15.49362049419066 Sparrow 1 43881U 18111F 26221.81266779 .00915095 46952-3 10928-2 0 9995 2 43881 97.5986 168.7559 0011461 155.2142 204.9693 16.08369758419879 Prox-1 1 44339U 19036A 26222.05746725 .00007946 00000-0 74108-3 0 9991 2 44339 23.9943 114.0589 0005850 300.3968 59.5954 14.91771357381521 Taurus 1 1 44530U 19059C 26222.20184882 .00003141 00000-0 50199-3 0 9993 2 44530 98.6458 30.4173 0009467 137.4165 222.7776 14.72602829366592 TO-108 1 44881U 19093C 26222.16262558 .00000980 00000-0 11647-3 0 9995 2 44881 97.7502 293.0707 0011973 270.0057 89.9786 14.86595063359435 RS-44 1 44909U 19096E 26222.18379069 .00000001 00000-0 -41476-4 0 9996 2 44909 82.5235 303.8313 0217724 18.4314 342.4519 12.79748754309259 SALSAT 1 46495U 20068K 26221.96518637 .00004592 00000-0 15837-3 0 9999 2 46495 97.8874 228.3382 0011375 110.8260 249.4199 15.30494105323587 CSS (TIANHE-1) 1 48274U 21035A 26221.84723466 .00014603 00000-0 18665-3 0 9992 2 48274 41.4697 356.2595 0001093 264.0637 96.0076 15.58937645301548 CUTE 1 49263U 21088D 26197.83813593 .08921004 25505-5 41832-3 0 9995 2 49263 97.3907 300.4441 0014216 277.7997 82.1689 16.41647044267308 TeikyoSat 4 1 49396U 21102B 26222.07663520 .00001000 00000-0 65741-4 0 9998 2 49396 97.3656 249.4649 0013686 105.8118 254.4622 15.09677177260851 Z-Sat 1 49399U 21102E 26222.16890250 .00004264 00000-0 20825-3 0 9991 2 49399 97.3307 255.8574 0017973 61.7787 298.5259 15.18644717261636 KOSEN 1 1 49402U 21102H 26222.06595050 .00004593 00000-0 17277-3 0 9997 2 49402 97.3158 263.1911 0013905 24.8346 335.3560 15.27543178262246 HO-113 1 50466U 21131B 26222.20069758 .00000259 00000-0 93546-4 0 9997 2 50466 98.4980 314.2983 0002997 307.4167 52.6749 14.41401230242894 SNUGLITE 2 1 52899U 22065F 26222.14710030 .00000448 00000-0 93877-4 0 9992 2 52899 98.2272 6.9058 0006886 205.2323 154.8544 14.64434487218892 UmKA 1 (RS40S) 1 57172U 23091G 26222.16801655 .00003521 00000-0 16007-3 0 9991 2 57172 97.5015 280.6660 0010840 293.6314 66.3783 15.21365722172210 CubeBel-2 (EU11S) 1 57175U 23091K 26222.21284150 .00007674 00000-0 26364-3 0 9995 2 57175 97.5017 285.9479 0007677 283.4529 76.5855 15.30376707172566 RS-38S 1 57189U 23091Z 26222.18947284 .00010134 00000-0 27662-3 0 9997 2 57189 97.5061 292.8088 0005960 224.3447 135.7321 15.37613184172981 SONATE-2 1 59112U 24043Q 26222.18581394 .00028676 00000-0 31884-3 0 9990 2 59112 97.5574 16.0836 0005085 9.4618 350.6735 15.62842241136315 GRBBeta 1 60237U 24128C 26221.90610223 .00002122 00000-0 15391-3 0 9990 2 60237 61.9901 27.7438 0033327 146.3803 213.9414 15.06973032114365 Curium One 1 60242U 24128H 26221.90573008 .00005351 00000-0 30852-3 0 9991 2 60242 61.9792 15.4100 0032538 142.3359 218.0024 15.13216956114584 ROBUSTA-3A 1 60243U 24128J 26222.16599341 .00005134 00000-0 30351-3 0 9992 2 60243 61.9868 17.2625 0034207 139.5408 220.8241 15.12335616114585 CatSat 1 60246U 24125J 26222.14055694 .00055451 00000-0 54362-3 0 9993 2 60246 97.2043 75.6082 0015629 344.2559 15.8213 15.65768641115813 HYPERVIEW-1G (RS66S) 1 61772U 24199AP 26222.18127244 .00720146 26129-3 10385-2 0 9993 2 61772 97.2611 105.4663 0006328 149.3102 210.8551 16.05386052143236 AO-123 1 61781U 24199AY 26222.17007205 .00004970 00000-0 14179-3 0 9999 2 61781 97.2927 90.3598 0015356 112.1351 248.1525 15.36391919142213 JINJUSat 1B 1 63210U 25052A 26222.21137888 .00010056 00000-0 29752-3 0 9998 2 63210 97.3930 119.0813 0001239 207.4982 152.6196 15.35101330 78383 NUSHSAT 1 1 63211U 25052B 26221.96567326 .00014116 00000-0 37968-3 0 9993 2 63211 97.3906 119.6018 0000791 192.2827 167.8398 15.37991634 78402 TEVEL2-4 1 63213U 25052D 26222.20497632 .00011703 00000-0 33158-3 0 9991 2 63213 97.3827 118.7359 0000097 0.9767 359.1477 15.36420811 78408 TEVEL2-5 1 63214U 25052E 26221.64581100 .00013192 00000-0 37601-3 0 9994 2 63214 97.3826 118.1063 0000271 6.7319 353.3928 15.36202521 78318 TEVEL2-6 1 63215U 25052F 26221.98506588 .00012760 00000-0 36409-3 0 9994 2 63215 97.3827 118.4314 0000345 23.2764 336.8496 15.36176088 78361 TEVEL2-1 1 63217U 25052H 26222.16425542 .00010886 00000-0 31696-3 0 9997 2 63217 97.3804 118.1683 0000973 357.4701 2.6538 15.35581843 78378 TEVEL2-3 1 63218U 25052J 26221.70058153 .00012230 00000-0 35511-3 0 9992 2 63218 97.3808 117.7335 0001002 18.0332 342.0947 15.35638434 78303 TEVEL2-2 1 63219U 25052K 26222.16418214 .00011039 00000-0 32124-3 0 9995 2 63219 97.3805 118.1718 0001001 358.0714 2.0525 15.35594875 78373 TEVEL2-9 1 63237U 25052AD 26222.21370538 .00010012 00000-0 31170-3 0 9997 2 63237 97.3866 117.4738 0004285 330.0088 30.0909 15.33477517 78306 TEVEL2-7 1 63238U 25052AE 26222.20043598 .00010111 00000-0 31811-3 0 9992 2 63238 97.3870 117.3528 0004384 329.0666 31.0317 15.33139919 78291 TEVEL2-8 1 63239U 25052AF 26222.14391826 .00010131 00000-0 31887-3 0 9991 2 63239 97.3871 117.2714 0004396 331.7554 28.3449 15.33125518 78282 HYDRA-W HYDRA-W 1 63490U 25052BL 26112.26439385 .02130398 41366-2 26477-2 0 9994 2 63490 97.3739 16.4004 0007524 180.8298 179.2974 16.08789288 62061 HADES-ICM (SO-125) 1 63492U 25052BN 26141.26653985 .06534464 24594-5 20838-2 0 9990 2 63492 97.3646 46.2798 0012126 212.7126 147.3417 16.26141574 66567 SPIRONE 1 66657U 25274H 26221.78129265 .00000662 00000-0 67864-4 0 9992 2 66657 97.7468 150.3114 0011570 188.3746 171.7283 14.93738650 38229 K-HERO 1 66660U 25274L 26222.03910714 .00000730 00000-0 73495-4 0 9995 2 66660 97.7477 150.7658 0013309 192.8982 167.1899 14.94140703 38278 SNUGLITE-III DURI 1 66661U 25274M 26221.75796507 .00001028 00000-0 10127-3 0 9999 2 66661 97.7473 150.5091 0013926 195.1475 164.9330 14.94158124 38239 SilverSat SilverSat 1 66909U 98067XV 26113.44966717 .07226154 12288-4 11979-2 0 9998 2 66909 51.6027 190.0749 0007952 333.4666 26.5949 16.32457272 22308 SAKHACUBE-CHOLBON 1 67290U 25313AU 26221.16627161 .00006418 00000-0 25383-3 0 9994 2 67290 97.3908 295.5622 0009839 159.9018 200.2609 15.25769371 34052 RS95S (QMR-KWT-2) 1 67291U 25313AV 26221.16439575 .00010597 00000-0 39504-3 0 9998 2 67291 97.3904 295.8614 0009588 157.9612 202.2042 15.27574898 34077 Ten-Koh2 1 68261U 25241B 26221.78075326 .00004659 00000-0 20056-3 0 9998 2 68261 51.6572 64.4423 0005714 316.7714 43.2815 15.24467259 23081 JACK-002 1 68417U 26067B 26221.82468530 .00003985 00000-0 18822-3 0 9995 2 68417 97.4601 179.7866 0004138 90.2798 269.8911 15.19990909 20099 DISCO 2 1 68431U 26067R 26222.11792535 .00004480 00000-0 21232-3 0 9999 2 68431 97.4634 180.0694 0003401 127.0243 233.1303 15.19812827 20137 HADES-SA (SpinnyONE) 1 68446U 26067AG 26222.13963730 .00010449 00000-0 47688-3 0 9999 2 68446 97.4428 179.7053 0004130 232.0814 128.0048 15.20786629 20128 PARUS-6U1 1 68456U 26067AS 26221.85352631 .00002936 00000-0 14760-3 0 9997 2 68456 97.4590 179.4228 0003956 222.2683 137.8247 15.18026308 20071 SAL-E 1 68458U 26067AU 26222.10051289 .00004467 00000-0 22006-3 0 9996 2 68458 97.4512 179.5767 0003846 233.7907 126.2971 15.18466142 20115 IO-86 1 40931U 15052B 25151.18580782 .00001310 00000-0 87238-4 0 9990 2 40931 6.0001 24.1284 0012872 339.0660 20.8941 14.78806187523042 LILIUM-4 LILIUM-4 1 71922C 26067AC 26089.50133053 -.00014632 00000+0 -74472-3 0 04 2 71922 97.4497 49.1617 0004341 5.9603 355.7042 15.16896692 16